IU1INZ-13 Weather Reports


Display with metric or nautical units.
time (UTC)temp
F
wind
direction
speed
MPH
gust
MPH
rain 1hr
in
rain 24hr
in
rain mn
in
humidity
%
barometer
mb
20260505170035 58 57 2.0 4.0 0.00 0.46 0.35 77 1012.5
20260505164530 59 71 1.0 2.0 0.00 0.46 0.35 77 1012.7
20260505163033 59 55 1.0 3.0 0.00 0.46 0.35 76 1012.8
20260505161533 59 200 2.0 3.0 0.00 0.46 0.35 75 1012.8
20260505153031 59 170 0.0 3.0 0.00 0.46 0.35 75 1012.8
20260505151529 59 152 2.0 3.0 0.00 0.46 0.35 76 1012.9
20260505124539 57 59 1.0 4.0 0.00 0.46 0.35 82 1013.8
20260505123033 56 63 2.0 4.0 0.00 0.46 0.35 81 1013.9
20260505121534 56 0 0.0 1.0 0.00 0.46 0.35 83 1013.9
20260505120038 55 281 1.0 2.0 0.00 0.46 0.35 83 1014.2
20260505114531 56 0 0.0 1.0 0.00 0.46 0.35 84 1014.2
20260505113033 55 314 0.0 3.0 0.00 0.46 0.35 84 1014.2
20260505111531 55 270 1.0 2.0 0.00 0.46 0.35 83 1014.3
20260505101539 53 217 2.0 3.0 0.00 0.46 0.35 87 1014.5
20260505100035 53 0 1.0 3.0 0.00 0.46 0.35 89 1014.4
20260505094534 53 272 2.0 3.0 0.00 0.46 0.35 89 1014.4
20260505093031 53 219 1.0 4.0 0.00 0.46 0.35 89 1014.4
20260505091534 52 252 2.0 4.0 0.00 0.46 0.35 89 1014.5
20260505090029 52 287 1.0 4.0 0.00 0.46 0.35 89 1014.3
20260505084542 52 233 2.0 4.0 0.00 0.46 0.35 89 1014.3
20260505083033 52 235 2.0 4.0 0.00 0.46 0.35 89 1014.2
20260505081534 53 243 2.0 3.0 0.00 0.46 0.35 89 1014.0
20260505080030 52 223 2.0 4.0 0.00 0.46 0.35 89 1014.0
20260505074534 52 162 1.0 3.0 0.02 0.46 0.35 88 1013.9
20260505073040 52 204 1.0 3.0 0.02 0.46 0.35 88 1013.9
20260505071533 52 220 0.0 2.0 0.01 0.45 0.34 88 1013.8
20260505070040 52 225 0.0 4.0 0.01 0.45 0.34 87 1014.0
20260505064534 52 0 0.0 2.0 0.00 0.44 0.33 85 1013.8
20260505063030 52 333 1.0 4.0 0.00 0.44 0.33 86 1013.6
20260505061539 52 319 2.0 7.0 0.01 0.44 0.33 86 1013.7
20260505060034 51 337 5.0 9.0 0.04 0.44 0.33 87 1013.5
20260505054537 51 316 4.0 6.0 0.09 0.44 0.33 89 1013.6
20260505053033 51 13 3.0 6.0 0.13 0.43 0.32 90 1013.6
20260505051533 50 0 0.0 0.0 0.17 0.42 0.31 90 1013.7
20260505041548 51 240 0.0 2.0 0.11 0.24 0.13 89 1014.2
20260505040040 51 0 0.0 0.0 0.07 0.20 0.09 89 1014.3
20260505034533 51 0 0.0 3.0 0.03 0.15 0.04 88 1014.1
20260505033034 52 238 0.0 3.0 0.01 0.14 0.03 87 1014.0
20260505031541 52 242 0.0 2.0 0.00 0.13 0.02 87 1014.0
20260505030032 52 209 1.0 5.0 0.00 0.12 0.01 85 1014.3
20260505024538 52 240 1.0 4.0 0.00 0.12 0.01 84 1014.2
20260505023031 53 146 3.0 6.0 0.00 0.12 0.01 83 1014.2
20260505021535 53 139 1.0 4.0 0.00 0.12 0.01 80 1014.2
20260505020032 53 0 0.0 3.0 0.00 0.12 0.01 78 1014.2
20260505014541 53 318 2.0 5.0 0.00 0.12 0.01 79 1014.2
20260505013038 52 314 2.0 6.0 0.00 0.12 0.01 81 1014.2
20260505011530 53 304 2.0 5.0 0.01 0.12 0.01 82 1014.6
20260505010033 53 333 2.0 3.0 0.01 0.12 0.01 86 1015.2
20260505004538 53 0 0.0 2.0 0.01 0.12 0.01 85 1015.7
20260505003032 53 352 1.0 3.0 0.00 0.11 0.00 84 1015.9
20260505001533 53 210 0.0 3.0 0.00 0.11 0.00 83 1016.1
20260505000038 54 0 0.0 1.0 0.00 0.11 0.00 82 1016.1
20260504234536 54 0 0.0 1.0 0.00 0.11 0.00 81 1016.4
20260504233041 54 219 0.0 2.0 0.00 0.11 0.00 80 1016.4
20260504231534 55 162 1.0 4.0 0.00 0.11 0.00 79 1016.6
20260504230035 55 52 2.0 7.0 0.00 0.11 0.00 80 1016.8
20260504224537 55 214 1.0 5.0 0.00 0.11 0.00 79 1017.0
20260504223052 54 160 1.0 4.0 0.00 0.11 0.00 78 1016.8
20260504221536 54 205 3.0 3.0 0.00 0.11 0.00 78 1016.8
20260504220041 55 253 1.0 5.0 0.00 0.11 0.00 72 1017.1
20260504214532 56 296 3.0 6.0 0.00 0.11 0.11 69 1017.3
20260504213045 55 170 0.0 9.0 0.00 0.11 0.11 74 1017.7
20260504211535 56 307 4.0 11.0 0.00 0.11 0.11 66 1017.5
20260504210038 56 316 5.0 13.0 0.00 0.11 0.11 68 1017.5
20260504204542 55 321 5.0 10.0 0.00 0.11 0.11 70 1017.6
20260504203036 55 307 5.0 13.0 0.00 0.11 0.11 70 1017.7
20260504201531 55 356 7.0 12.0 0.00 0.11 0.11 72 1017.9
20260504200029 54 316 6.0 14.0 0.00 0.11 0.11 73 1017.8
20260504194533 54 340 6.0 12.0 0.00 0.11 0.11 74 1017.8
20260504193033 54 322 8.0 14.0 0.00 0.11 0.11 74 1017.6
20260504191533 54 326 6.0 14.0 0.00 0.11 0.11 77 1017.4
20260504190030 54 310 6.0 14.0 0.01 0.11 0.11 77 1017.4
20260504184535 54 283 9.0 15.0 0.03 0.11 0.11 77 1017.2
20260504183034 54 276 7.0 14.0 0.03 0.11 0.11 78 1017.4
20260504181541 54 294 5.0 10.0 0.06 0.10 0.10 81 1017.5
20260504180032 55 282 5.0 10.0 0.09 0.09 0.09 80 1017.7
20260504174533 56 317 4.0 10.0 0.07 0.07 0.07 79 1017.3
20260504173032 56 300 3.0 6.0 0.07 0.07 0.07 81 1017.2
20260504171533 58 319 4.0 7.0 0.03 0.03 0.03 73 1017.3